User: anonymous   Login
Location: Rancho Del Sol Observatory
(38.7214°N, 120.6350°W)
Time: 11:44:36
(UTC-07:00)
Language:

Cosmos 2221 Rocket - Orbit

View from above orbital plane
View from above orbital plane
View from above satellite
View from above satellite

Ground track
Ground track

The orbit data is extracted from the following two-line orbital elements,

1 22237U 92080B   16239.84864866  .00000116  00000-0  12771-4 0  9996
2 22237  82.5118  31.5125 0021314  88.3110  23.3573 14.78276229279955
Epoch (UTC): 26 August 2016 20:22:03
Eccentricity: 0.0021314
inclination: 82.5118°
perigee height: 620 km
apogee height: 650 km
right ascension of ascending node: 31.5125°
argument of perigee: 88.3110°
revolutions per day: 14.78276229
mean anomaly at epoch: 23.3573°
orbit number at epoch: 27995

The dashed part of the orbit path shows where the satellite is in the earth's shadow,  

DLR